Погода в Сарагте

Погода в Сарагте : погода сейчас, прогноз погоды и архив. Всё, что Вы хотите узнать о погоде в Сарагте!

Поиск расширенной информации на нашем сайте:

Полезная информация: Получить визу в великобританию. Можно ли узнать получил визу в великобританию или нет.

Другие новости

Новости СМИ2

Главная страница сайта

Новости сайта

03.07.2017

Напоминаем, что на нашем специализированном сайте Метеоцентр.Азия вы можете получить высокодетализированные автоматические прогнозы погоды по пунктам России, СНГ и мира в авиационном формате (включающие направление и скорость ветра, видимость, явления погоды, количество и форму облачности, нижнюю и верхнюю границу облачности).

Рекомендуем: Клееный брус строительство под ключ дома из клееного бруса под ключ.

Погода в Сарагте - сегодня

Время (UTC), дата Ветер
(°,м/с) 
Видим.   Явления Облачность Т
(°С)
Тd
(°С)
f(%) Тe
(°С)
Pmin
(гПа)
dP
(гПа)
Po
(мм)
O2
(г/м3)
Тmin Tmax R s Состояние
почвы
21 21.11.17 200 (Ю) 20000 м    ясно 
+16.2 -6.7 20 +17  1009.9  -1.4  733  280           
00 22.11.17 200 (Ю) 20000 м    ясно 
+15 -8.6 19 +16  1009.6  -0.5  733  281           
03 22.11.17 200 (Ю) 20000 м    10/0 верхняя 
[Cs]
+16 -10.3 15 +17  1009.2  -0.3  733  280           
06 22.11.17 200 (Ю) 20000 м    10/0 верхняя 
[Cs]
+21.6 -9 12 +22  1009.7  1.2  734  275  +14.9         
09 22.11.17 180 (Ю) 20000 м    10/0 средняя, верхняя 
[Ac As|Cs]
+26 -8.2 10 +26  1006.7  -2.6  732  270           
12 22.11.17 200 (Ю) 20000 м    10/0 средняя, верхняя 
[Ac As|Cs]
+23.2 -6.4 13 +23  1006.4  -0.4  731  272           
15 22.11.17 160 (Ю) 20000 м    10/0 средняя, верхняя 
[Ac As|Cs]
+21.2 -5.4 16 +21  1007.2  0.5  732  274    +26.9       
18 22.11.17 200 (Ю) 9-14  10 км  {ливн. осадки}  10/0 средняя, верхняя 
[Ac As|Cs]
+20.3 -11.2 11 +20  1008.3  732  276    +26.9       
21 22.11.17 200 (Ю) 20000 м    8/0 средняя 
[Ac cast]
+19.4 -9 14 +20  1009.1  0.6  733  277           
00 23.11.17 230 (ЮЗ) 20000 м    ясно 
+16.6 -0.9 30 +17  1008.5  -0.9  732  278           
03 23.11.17 200 (Ю) 20000 м    ясно 
+15.6 +4 46 +16  1009.5  733  279      0.4     
06 23.11.17 250 (З) 20000 м    ясно 
+22 +1.3 25 +22  1010.4  1.5  734  274  +15.5    0.4     
09 23.11.17 090 (В) 20000 м    4/0 верхняя 
[Ci sp]
+25.7 +2.9 23 +26  1008.2  -1.7  733  269           
12 23.11.17 090 (В) 20000 м    10/0 верхняя 
[Cs]
+25 +2.5 23 +25  1006.9  -1.4  732  270           
15 23.11.17 090 (В) 20000 м    10/0 средняя, верхняя 
[Ac As|Cs]
+20.9 +0.9 26 +21  1007.2  -0.1  732  274    +26.2       
18 23.11.17 320 (СЗ) 20000 м    10/0 средняя, верхняя 
[Ac As|Cs]
+13.4 +7 65 +13  1019.2  4.8  735  281    +26.2       
21 23.11.17 320 (СЗ) 20000 м    8/0 средняя 
[Ac cuf]
+10.2 +6.8 79 +9  1014.9  1.4  736  285           
00 24.11.17 320 (СЗ) 20000 м    6/0 средняя 
[Ac cuf]
+7 +4.3 83 +6  1016.3  1.1  737  289           
03 24.11.17 340 (С) 20000 м    10/4 600 м средняя 
[Frnb|As trans]
+10.6 +8.1 85 +11  1018.2  2.2  739  285           
06 24.11.17 140 (ЮВ) 20000 м    10/4 600 м средняя 
[Frnb|As trans]
+11.6 +9.2 85 +12  1018.6  0.5  739  284  +6.9         
09 24.11.17 050 (СВ) 20000 м    10/3 600 м средняя 
[Frnb|As trans]
+12.4 +10 85 +14  1016.5  -1.8  738  283           
12 24.11.17 340 (С) 20000 м    10/4 600 м средняя 
[Frnb|As trans]
+13.1 +10.3 83 +16  1014.9  -1.5  737  281           
15 24.11.17 140 (ЮВ) 20000 м    10/0 верхняя 
[Cs]
+10.9 +9.5 91 +13  1015  -0.3  737  284    +20.8       
18 24.11.17 тихо ()   20000 м    10/0 средняя 
[As op]
+10.3 +8.9 91 +10  1014.8  -0.2  736  284    +20.8       
21 24.11.17 090 (В) 10 км  слаб. ливневой дождь  10/6 450 м кучево-дожд., средняя, верхняя 
[Cb cap|Ac As|Cs]
+9.3 +8.2 93 +9  1014.3  -0.5  736  285           
Время (UTC), дата Ветер
(°,м/с) 
Видим.   Явления Облачность Т
(°С)
Тd
(°С)
f(%) Тe
(°С)
Pmin
(гПа)
dP
(гПа)
Po
(мм)
O2
(г/м3)
Тmin Tmax R s Состояние
почвы

Для получения пояснительной информации подведите курсор к названию столбца.

ПОГОДА в Сарагте - архив

Всё, что Вы хотите узнать о погоде в Сарагте - удобно и подробно!

Выберите нужную дату (начиная с 1 января 2015* года) и нажмите кнопку "Найти".
Будут отображены архивные сводки погоды по пункту Сарагт, начиная с указанной даты.


Отображать данные в формате CSV (для использования в таблицах Excel)


Внимание! Наш архив погоды предназначен исключительно для личного некоммерческого использования в познавательных целях. Если Вам необходимы официальные справки о состоянии погоды (для производственных, юридических, коммерческих и т.п. целей), обращайтесь в органы Росгидромета.

*Примечание: данная дата относится к архиву по метеостанциям СССР (Россия, СНГ, Балтия).
Архив по метеостанциям Зарубежной Европы и Азии (кроме Китая) хранится 10 дней, по другим регионам земного шара (Китай, Африка, Америка, Австралия, Океания) - 1 день.

Сарагт - район местоположения метеостанции


Название, широта, долгота, высота метеостанции:
Сарагт 36.5°ш. 61.2°д. 275 м над ур. моря [Туркменистан]

Дополнительная информация

В oтличие oт бoльшинства пoгoдных сайтoв мы публикуем пoдрoбную метеoинфoрмацию в детальнoм прoфессиoнальнoм фoрмате.

Характеристики температуры и влажнoсти вoздуха измеряются на высoте 2 м в тени вдали oт зданий и деревьев.
Скoрoсть ветра измеряется на высoте 10 м (на урoвне рoста челoвека скoрoсть ветра ниже в 1.5-2 раза). Если метеoстанция нахoдится в гoрoде или в лесу, тo скoрoсть ветра занижена на 2-4 м/с пo сравнению с oткрытым местoм. Скoрoсть ветра над акватoриями крупных рек и oзёр, а также на вершинах хoлмoв на 2-5 м/с выше, чем в oбычных услoвиях.
Атмoсфернoе давление в разных тoчках местнoсти мoжет значительнo oтличаться oт давления на метеoстанции, в зависимoсти oт услoвий рельефа (при пoдъёме на 10 м давление пoнижается примернo на 1 мм рт.ст.).